CAPE
3 10 13 22 22 28 22 35 19 21 37 34 20 1 3 0 5 2 0 0 0 0 0 0 0 0 0 0 0 0 0 0 0 0 0 0 0 0 0 0 0 0 0 0 0
2 3 9 25 79 70 54 39 35 32 29 25 6 0 0 5 4 0 0 0 26 15 0 0 0 0 0 0 0 0 0 0 0 0 0 0 0 0 0 0 0 0 0 0 0
3 1 33 57 77 95 91 74 61 39 26 4 5 0 0 30 10 0 0 0 25 89 0 0 0 0 0 0 0 0 0 0 0 0 0 0 0 0 0 0 0 0 0 0 0
17 0 0 16 39 132 142 147 78 47 11 0 0 2 7 29 0 0 0 0 25 122 15 0 0 0 0 0 0 0 0 0 0 0 0 0 0 0 0 0 0 0 0 0 0
38 1 0 8 45 169 166 199 163 48 17 4 3 37 19 20 0 0 0 0 21 85 16 0 0 0 0 0 0 0 0 0 0 0 0 0 0 0 0 0 0 0 0 0 0
39 24 23 53 59 27 54 172 151 43 12 17 21 36 23 1 0 0 7 0 18 48 26 1 1 0 0 0 0 0 0 0 0 0 0 0 0 0 0 0 0 0 0 0 0
51 39 23 22 46 118 116 93 66 37 98 99 120 25 19 1 0 0 0 25 44 36 13 0 0 0 0 0 0 0 0 0 0 0 0 0 0 0 0 0 0 0 0 0 0
37 32 9 21 50 80 98 76 80 121 128 57 118 25 8 0 0 0 0 2 70 58 26 11 0 0 0 0 0 0 0 0 0 0 0 0 0 0 0 0 0 0 0 0 0
10 7 0 0 0 0 6 2 43 84 135 118 63 39 6 0 0 0 0 42 36 51 15 3 0 0 0 0 0 0 0 0 0 0 0 0 0 0 0 0 0 0 0 0 0
15 8 1 0 14 17 2 4 20 25 78 0 0 43 0 0 3 5 10 34 13 17 16 2 0 0 0 0 0 0 0 0 0 0 0 0 0 0 0 0 0 0 0 0 0
27 29 9 30 10 33 2 34 0 7 0 0 0 0 0 0 1 54 32 101 23 11 11 13 1 0 0 0 0 0 0 0 0 0 0 0 0 0 0 0 0 0 0 0 0
4 5 8 5 50 42 19 10 3 0 0 0 0 0 17 31 15 47 103 63 29 10 9 1 0 0 0 0 0 0 0 0 0 0 0 0 0 0 0 0 0 0 0 0 0
4 1 2 0 10 64 36 22 0 1 7 2 0 13 16 39 63 6 18 25 32 25 22 0 0 0 0 0 0 0 0 0 0 0 0 0 0 0 0 0 0 0 0 0 0
7 2 2 2 2 14 23 2 0 0 0 2 35 42 50 9 15 7 0 19 54 66 25 0 0 0 0 0 0 0 0 0 0 0 0 0 0 0 0 0 0 0 0 0 0
0 0 1 0 4 20 21 4 3 0 0 0 7 1 38 4 1 5 0 0 52 27 0 0 0 0 0 0 0 0 0 0 0 0 0 0 0 0 0 0 0 0 0 0 0
0 0 0 1 0 4 5 0 6 1 0 1 6 12 0 8 0 1 0 0 0 3 0 0 0 0 0 0 0 0 0 0 0 0 0 0 0 0 0 0 0 0 0 0 0
0 0 0 0 1 0 0 7 2 0 2 2 8 3 0 1 0 0 0 0 0 0 0 0 0 0 0 0 0 0 0 0 0 0 0 0 0 0 0 0 0 0 0 0 0
0 0 0 0 0 0 1 1 0 4 5 15 4 8 4 0 4 0 0 0 0 0 0 0 0 0 0 0 0 0 0 0 0 0 0 0 0 0 0 0 0 0 0 0 0
0 0 0 0 0 0 1 0 4 5 7 12 9 5 9 18 5 0 0 0 0 0 0 0 0 0 0 0 0 0 0 0 0 0 0 0 0 0 0 0 0 0 0 0 0
0 0 0 0 0 0 1 6 10 2 2 13 3 5 2 2 0 14 48 12 0 0 0 0 0 0 0 0 0 0 0 0 0 0 0 0 0 0 0 0 0 0 0 0 0
0 0 0 0 0 0 0 0 0 0 0 0 4 3 0 7 16 10 1 0 0 0 0 0 0 0 0 0 0 0 0 0 0 0 0 0 0 0 0 0 0 0 0 0 0
0 0 0 0 0 0 0 0 0 0 0 0 0 0 0 11 8 2 0 0 0 0 0 0 0 0 0 0 0 0 0 0 0 0 0 0 0 0 0 0 0 0 0 0 0
0 0 0 0 0 0 0 0 0 0 0 0 0 0 0 0 0 0 0 0 0 0 0 0 0 0 0 0 0 0 0 0 0 0 0 0 0 0 0 0 0 0 0 0 0
0 0 0 0 0 0 0 0 0 0 0 0 0 0 0 0 0 0 0 0 0 0 0 0 0 0 0 0 0 0 0 0 0 0 0 0 0 0 0 0 0 0 0 0 0
0 0 0 0 0 0 0 0 0 0 0 0 0 0 0 0 0 0 0 0 0 0 0 0 0 0 0 0 0 0 0 0 0 0 0 0 0 0 0 0 0 0 0 0 0
0 0 0 0 0 0 0 0 0 0 0 0 0 0 0 0 0 0 0 0 0 0 0 0 0 0 0 0 0 0 0 0 0 0 0 0 0 0 0 0 0 0 0 0 0
0 0 0 0 0 0 0 0 0 0 0 0 0 0 0 0 0 0 0 0 0 0 0 0 0 0 0 0 0 0 0 0 0 0 0 0 0 0 0 0 0 0 0 0 0
CIN
0 -5 -7 -0 -0 -0 -0 -0 -1 -1 -1 -0 -0 0 -0 0 -1 -1 0 0 0 0 0 0 0 0 0 0 0 0 0 0 0 0 0 0 0 0 0 0 0 0 0 0 0
-0 -0 -0 -0 -0 -0 -0 0 0 -0 -0 -0 -0 0 0 -1 -2 0 0 0 -28 -51 0 0 0 0 0 0 0 0 0 0 0 0 0 0 0 0 0 0 0 0 0 0 0
-0 -0 -0 -0 -0 -0 -0 -0 -0 -0 -0 0 -0 -0 0 -0 -1 0 0 0 -73 -39 0 0 0 0 0 0 0 0 0 0 0 0 0 0 0 0 0 0 0 0 0 0 0
0 0 0 -11 -9 -6 -5 -0 -0 -0 -0 0 0 -0 -4 -0 0 0 0 0 -69 -25 -76 0 0 0 0 0 0 0 0 0 0 0 0 0 0 0 0 0 0 0 0 0 0
-2 -3 0 -73 -7 -0 -0 -0 -0 -1 -2 0 0 -0 -1 -0 0 0 0 0 -67 -22 -72 0 0 0 0 0 0 0 0 0 0 0 0 0 0 0 0 0 0 0 0 0 0
-1 -2 -16 -20 -21 -12 -17 -0 0 -13 -12 -3 -1 -1 -0 0 0 0 -4 0 -63 -39 -41 -18 -53 0 0 0 0 0 0 0 0 0 0 0 0 0 0 0 0 0 0 0 0
0 -1 -1 -9 -6 -0 -0 -2 -5 -21 -4 -1 -0 -1 -1 -1 0 0 0 -4 -42 -72 -45 0 0 0 0 0 0 0 0 0 0 0 0 0 0 0 0 0 0 0 0 0 0
-2 -2 -3 -6 -3 -2 -0 -0 -0 -0 -0 -10 -0 -2 -0 0 0 0 -1 -1 -14 -64 -86 -86 0 0 -15 0 0 0 0 0 0 0 0 0 0 0 0 0 0 0 0 0 0
-4 -3 0 -2 0 0 -18 -8 -7 -6 -0 -0 -4 -9 -1 0 0 0 -2 -2 -6 -19 -51 -51 -20 0 0 0 0 0 0 0 0 0 0 0 0 0 0 0 0 0 0 0 0
-0 -2 -0 0 -6 -4 -6 -4 -2 -2 -1 0 0 -3 -3 0 -39 -74 -23 -5 -2 -8 -14 -15 -17 0 0 0 0 0 0 0 0 0 0 0 0 0 0 0 0 0 0 0 0
0 -0 -6 -0 -2 -8 -1 0 0 -0 0 0 0 0 0 -80 -51 -5 -8 -2 -2 -11 -8 -11 -2 0 0 0 0 0 0 0 0 0 0 0 0 0 0 0 0 0 0 0 0
-0 -9 -4 -32 -1 -3 -11 -4 -6 -3 -0 0 0 0 -63 -11 -7 -16 -9 -0 -3 -2 -16 -6 0 0 0 0 0 0 0 0 0 0 0 0 0 0 0 0 0 0 0 0 0
-0 0 0 0 -9 0 0 -1 0 -12 0 -2 0 -26 -13 -3 -0 -16 -24 -27 -7 -3 -8 0 0 0 0 0 0 0 0 0 0 0 0 0 0 0 0 0 0 0 0 0 0
-0 0 0 0 -0 -5 -2 0 0 0 0 0 -1 -7 -19 -2 -5 -4 -2 -20 -7 -1 -27 0 0 0 0 0 0 0 0 0 0 0 0 0 0 0 0 0 0 0 0 0 0
0 0 0 0 -16 -3 -9 -6 -4 0 0 0 -2 -10 -2 -6 -0 -2 0 -2 -9 -15 0 0 0 0 0 0 0 0 0 0 0 0 0 0 0 0 0 0 0 0 0 0 0
0 0 0 0 -2 -35 -36 0 -0 0 0 0 -1 -4 0 -1 0 -21 0 0 0 -8 0 0 0 0 0 0 0 0 0 0 0 0 0 0 0 0 0 0 0 0 0 0 0
0 0 0 0 -15 0 0 -1 0 0 -0 0 0 -0 -0 0 0 0 0 0 0 0 0 0 0 0 0 0 0 0 0 0 0 0 0 0 0 0 0 0 0 0 0 0 0
0 0 0 0 0 0 0 0 0 0 0 -0 -0 0 0 -1 -0 0 -0 0 0 0 0 0 0 0 0 0 0 0 0 0 0 0 0 0 0 0 0 0 0 0 0 0 0
0 0 0 0 0 0 -2 -0 -0 -0 -0 0 -0 0 0 -0 -0 0 0 0 0 0 0 0 0 0 0 0 0 0 0 0 0 0 0 0 0 0 0 0 0 0 0 0 0
0 0 0 0 0 0 -17 -1 0 -6 -1 -2 0 -0 0 -0 0 -0 -3 -60 0 0 0 0 0 0 0 0 0 0 0 0 0 0 0 0 0 0 0 0 0 0 0 0 0
0 0 0 0 0 0 0 0 -1 -2 -1 -0 -6 -1 -1 -3 -4 -7 -12 0 -26 0 0 0 0 0 0 0 0 0 0 0 0 0 0 0 0 0 0 0 0 0 0 0 0
0 0 0 0 0 0 0 0 0 0 0 0 -2 0 0 -29 -37 -93 -6 0 0 0 0 0 0 0 0 0 0 0 0 0 0 0 0 0 0 0 0 0 0 0 0 0 0
0 0 0 0 0 0 0 0 0 0 0 0 0 0 0 0 -25 -26 0 0 0 0 0 0 0 0 0 0 0 0 0 0 0 0 0 0 0 0 0 0 0 0 0 0 0
0 0 0 0 0 0 0 0 0 0 0 0 0 0 0 0 0 0 0 0 0 0 0 0 0 0 0 0 0 0 0 0 0 0 0 0 0 0 0 0 0 0 0 0 0
0 0 0 0 0 0 0 0 0 0 0 0 0 0 0 0 0 0 0 0 0 0 0 0 0 0 0 0 0 0 0 0 0 0 0 0 0 0 0 0 0 0 0 0 0
0 0 0 0 0 0 0 0 0 0 0 0 0 0 0 0 0 0 0 0 0 0 0 0 0 0 0 0 0 0 0 0 0 0 0 0 0 0 0 0 0 0 0 0 0
0 0 0 0 0 0 0 0 0 0 0 0 0 0 0 0 0 0 0 0 0 0 0 0 0 0 0 0 0 0 0 0 0 0 0 0 0 0 0 0 0 0 0 0 0
Wind_Speed
26 27 29 29 28 29 30 32 33 33 32 32 33 33 33 33 33 36 45 34 30 27 22 22 21 20 19 19 18 19 21 23 21 20 21 25 21 20 21 22 22 22 22 20 6
25 27 27 27 25 27 28 30 31 32 32 32 33 34 33 32 37 46 37 36 34 33 25 25 21 17 18 17 16 15 20 22 20 26 30 29 26 26 25 25 26 23 18 11 6
21 23 25 26 25 24 28 29 29 30 32 33 34 34 33 30 40 47 39 40 37 33 31 27 24 18 20 19 17 17 24 27 34 32 31 30 30 27 27 28 26 30 21 13 11
21 22 21 20 19 25 28 29 29 29 31 32 32 32 31 31 45 34 32 33 32 30 27 27 26 24 21 21 19 20 31 31 34 35 32 31 29 31 28 28 29 24 15 11 12
21 17 15 19 17 19 24 27 27 29 30 32 32 30 30 42 44 26 27 28 32 32 32 27 24 22 23 20 22 24 34 33 34 35 34 32 31 32 34 32 30 21 17 16 17
13 12 10 8 12 12 21 26 28 28 30 32 33 30 35 53 42 31 21 29 34 34 34 28 23 22 23 25 25 25 33 32 29 33 33 30 32 28 30 30 26 21 20 21 22
9 6 4 4 3 4 20 28 29 28 28 30 32 32 42 46 33 36 36 34 36 31 31 29 22 22 21 27 27 29 34 33 34 33 32 27 30 34 34 31 26 27 23 24 25
9 9 7 7 10 17 24 27 30 29 26 25 26 30 42 36 41 38 35 36 37 30 30 27 26 26 25 25 25 23 27 30 28 28 32 23 27 32 32 19 21 24 28 28 31
8 7 7 6 15 19 22 23 26 30 27 16 20 29 36 26 36 39 32 32 34 31 28 23 26 30 25 27 26 20 26 28 29 26 28 16 26 26 27 25 26 26 28 22 18
10 7 7 10 14 20 21 22 16 2 11 13 15 26 28 36 31 30 29 28 33 30 31 30 29 28 30 27 30 25 23 30 26 23 13 19 32 32 31 23 26 21 15 17 19
6 6 7 10 16 20 21 22 10 17 20 20 23 21 21 24 25 29 27 27 31 33 36 33 32 34 30 29 26 22 27 28 24 19 18 26 32 31 26 18 14 14 14 16 18
2 4 7 13 15 22 25 21 22 23 29 32 23 25 17 18 29 31 24 31 35 37 31 31 39 31 26 28 27 24 27 26 21 18 20 25 29 22 15 15 10 11 14 16 17
3 5 10 17 18 21 21 22 27 25 27 26 29 29 21 18 23 28 25 28 32 34 33 34 32 25 27 29 28 19 23 23 22 23 25 23 24 17 12 8 10 12 12 13 15
5 7 13 19 21 23 28 31 27 20 23 25 27 25 31 23 19 22 21 27 26 32 28 30 26 28 26 22 18 23 23 23 22 22 20 16 21 16 7 9 10 10 11 12 15
7 10 18 24 25 26 26 25 20 15 21 20 22 23 27 19 27 29 20 18 26 26 26 29 26 27 22 21 18 20 19 20 20 21 23 18 19 16 7 9 9 8 9 11 14
7 12 21 24 20 20 23 22 18 18 22 23 25 29 29 23 25 24 24 19 22 22 20 20 19 19 21 17 14 16 19 20 19 20 24 20 14 14 5 6 6 7 7 9 13
9 12 19 18 12 20 24 23 19 19 22 25 28 30 34 23 25 22 25 26 24 25 22 18 20 19 17 17 17 19 18 21 23 22 23 15 18 16 7 3 3 3 6 9 13
13 14 13 14 17 22 21 20 15 16 23 27 32 15 40 32 32 38 34 38 34 17 17 20 23 21 19 20 19 20 19 20 24 23 22 19 24 22 4 3 1 3 7 10 14
17 14 13 12 17 21 22 17 18 19 26 37 32 33 38 34 43 35 32 28 23 25 20 20 22 18 18 16 17 19 22 17 20 21 22 20 19 17 8 1 2 4 8 12 14
14 14 14 17 21 22 16 16 15 21 35 29 27 30 26 40 39 32 28 24 23 20 15 18 20 22 17 18 19 16 16 18 18 21 22 21 21 21 4 2 4 7 9 12 12
13 13 14 17 22 17 20 19 19 16 22 22 32 33 30 26 24 22 20 19 17 17 15 13 16 20 18 23 22 19 19 18 17 16 18 20 19 21 6 5 5 8 9 10 13
12 14 13 21 15 15 20 20 20 14 11 15 21 24 31 32 23 18 17 14 17 19 14 15 12 17 21 17 17 19 19 18 19 18 19 18 21 16 14 8 9 10 11 15 15
10 10 13 15 20 19 17 12 11 15 12 16 17 27 20 23 19 17 17 16 18 18 18 17 16 16 20 21 20 20 18 16 17 18 21 20 19 12 12 11 15 16 16 17 17
14 12 7 5 12 7 8 14 12 9 9 15 14 9 17 17 14 21 20 16 15 15 15 16 14 17 18 17 16 19 19 18 18 21 21 18 20 15 18 23 23 22 19 16 17
15 13 15 17 11 10 11 19 14 13 11 12 13 18 18 14 13 19 18 15 14 14 14 14 13 13 14 16 17 19 20 21 21 21 25 27 26 26 28 32 33 25 17 16 17
16 14 11 14 11 5 11 11 7 15 12 11 9 4 4 11 18 10 8 17 17 15 15 15 15 16 20 21 23 27 29 29 28 27 29 30 35 28 27 25 21 18 16 17 17
15 12 13 14 11 9 12 9 10 8 8 5 7 3 3 7 6 8 6 7 8 12 13 15 15 18 21 20 24 30 28 19 20 18 20 23 22 26 26 24 25 23 19 19 20
Wind_Direction
318 311 305 302 297 288 280 273 271 267 265 262 260 261 261 260 258 252 243 247 243 253 264 261 268 276 283 292 291 293 286 281 283 279 290 299 308 295 284 273 268 270 278 289 39
324 314 308 304 299 289 280 275 270 265 263 261 259 258 258 258 253 247 246 242 241 246 254 250 257 266 276 289 296 302 286 284 288 277 280 278 278 283 285 275 263 277 294 326 3
336 325 314 306 299 291 281 275 270 265 262 259 258 256 255 255 251 246 242 237 236 244 247 250 254 262 267 281 289 296 281 278 261 264 273 273 273 278 277 263 267 259 286 305 317
345 335 326 321 312 293 280 274 269 266 261 258 255 252 250 245 242 253 237 232 234 239 242 243 248 254 262 274 287 289 268 271 264 257 275 274 282 267 271 269 272 288 302 310 308
354 358 351 327 328 311 287 272 267 264 259 255 251 246 244 237 234 261 234 216 227 231 232 239 242 252 258 275 281 284 263 267 263 258 266 275 275 268 262 264 276 293 301 301 304
18 17 17 14 336 327 294 274 264 265 258 253 247 241 239 234 237 251 242 221 220 224 230 237 244 255 261 267 276 283 269 272 276 263 268 276 268 277 270 272 286 294 296 296 296
47 64 127 63 82 152 253 259 256 259 259 251 243 235 236 233 238 245 242 230 222 217 223 233 246 256 265 264 276 279 267 269 258 258 258 271 272 259 261 277 286 287 297 294 296
58 62 92 143 166 191 208 213 230 245 251 250 238 232 236 242 240 244 238 233 222 219 226 241 246 256 259 267 277 286 276 269 271 262 241 271 282 252 272 290 289 295 291 292 287
63 85 109 128 198 194 192 200 206 196 227 238 233 231 232 243 232 234 231 226 213 219 221 237 248 248 253 254 265 283 277 269 271 261 258 278 284 279 279 290 286 291 286 302 323
68 98 134 169 192 193 180 208 219 1 222 228 234 228 237 227 224 230 225 221 203 209 221 231 241 240 243 245 250 266 277 265 276 281 278 284 267 252 255 296 288 294 314 318 321
72 121 153 176 162 138 130 114 254 230 228 227 224 230 236 225 222 222 222 200 198 204 219 222 231 231 238 244 256 273 273 271 277 275 280 277 270 250 265 308 323 317 316 323 325
107 179 180 167 154 137 157 162 166 196 195 203 213 216 217 207 208 214 204 203 193 198 212 219 230 235 240 247 254 268 272 270 277 284 290 286 279 291 311 314 328 331 325 328 331
245 170 150 151 152 150 166 155 151 158 156 178 195 199 201 208 208 203 198 201 195 201 211 220 230 233 238 244 252 264 268 272 279 281 283 287 284 292 318 345 341 338 346 347 350
91 151 148 147 124 135 131 134 151 163 154 161 181 202 196 196 191 211 202 199 211 198 211 226 230 228 237 246 251 259 265 271 281 287 289 296 293 289 311 322 333 342 349 356 355
101 128 135 137 122 128 151 147 161 178 161 192 192 192 187 207 185 195 195 202 199 196 220 223 219 226 233 244 254 263 269 274 284 287 289 293 294 294 292 308 322 338 348 358 0
128 129 131 131 144 127 143 145 162 160 150 175 181 182 186 197 192 197 204 205 195 202 223 222 222 229 241 247 256 264 268 276 286 289 283 290 290 299 254 292 325 339 354 4 358
222 155 129 142 134 118 123 145 145 145 168 166 172 174 179 183 179 177 184 187 194 203 204 209 224 238 236 239 252 259 265 267 269 275 280 299 297 295 236 240 298 348 4 358 349
239 206 147 140 114 104 123 152 159 160 159 167 161 152 167 171 177 177 181 189 200 206 194 212 221 226 235 242 248 252 261 267 266 273 284 298 287 301 280 241 321 25 11 358 349
263 168 170 128 127 116 114 137 154 160 159 154 159 157 163 175 170 181 192 191 202 200 217 216 225 232 236 246 252 252 257 280 281 287 288 295 305 315 335 356 337 344 346 342 345
236 165 180 75 112 124 144 136 154 155 141 166 170 169 139 167 174 181 191 205 206 216 232 224 219 231 241 243 252 262 272 270 279 279 281 290 292 297 334 341 330 332 338 343 358
180 192 163 88 127 151 150 150 153 173 170 175 166 167 173 176 184 195 205 208 217 218 232 232 231 231 237 237 243 256 263 273 281 288 289 293 302 314 325 317 329 336 339 345 346
194 199 242 108 191 183 159 160 154 167 189 166 184 181 175 175 192 206 209 222 222 219 230 239 240 228 234 250 257 260 265 272 277 286 292 305 306 328 347 344 335 335 336 337 342
235 231 260 245 177 177 179 181 187 178 182 175 177 187 195 190 199 210 216 225 221 225 230 231 236 232 238 251 257 261 270 279 289 297 294 304 315 345 354 3 344 334 330 331 335
241 219 257 335 203 65 204 188 193 211 191 180 185 200 201 210 224 208 209 231 237 238 238 243 253 250 247 259 263 265 274 285 292 294 300 303 310 318 321 322 329 329 325 329 331
231 223 213 188 200 201 215 183 197 199 203 207 193 186 197 215 221 212 216 223 242 250 255 260 265 269 268 272 277 280 281 285 290 297 297 307 308 309 312 315 319 326 330 330 334
232 225 228 209 229 265 232 228 239 204 222 219 211 231 240 225 211 225 225 225 236 248 255 267 269 277 276 283 285 282 282 287 291 295 298 302 302 317 320 326 334 336 333 330 333
256 269 244 230 249 259 245 259 234 230 241 263 234 242 271 242 248 239 268 271 267 266 271 274 276 277 277 289 290 282 286 299 305 312 316 315 325 328 330 334 331 331 329 326 328